| time (UTC) | temp F | wind direction | speed MPH | gust MPH | rain 1hr in | rain 24hr in | rain mn in | humidity % | barometer mb |
| 20260506230526 | 0 | 0.0 | 0.0 | 0.00 | 0.00 | 0.00 | 1009.2 | ||
| 20260506225525 | 0 | 0.0 | 0.0 | 0.00 | 0.00 | 0.00 | 1009.2 | ||
| 20260506224526 | 0 | 0.0 | 0.0 | 0.00 | 0.00 | 0.00 | 1009.2 | ||
| 20260506223546 | 0 | 0.0 | 0.0 | 0.00 | 0.00 | 0.00 | 1009.2 | ||
| 20260506222526 | 0 | 0.0 | 0.0 | 0.00 | 0.00 | 0.00 | 1009.2 | ||
| 20260506221607 | 0 | 0.0 | 0.0 | 0.00 | 0.00 | 0.00 | 1009.2 | ||
| 20260506220527 | 0 | 0.0 | 0.0 | 0.00 | 0.00 | 0.00 | 1009.2 | ||
| 20260506215526 | 0 | 0.0 | 0.0 | 0.00 | 0.00 | 0.00 | 1009.2 | ||
| 20260506214526 | 0 | 0.0 | 0.0 | 0.00 | 0.00 | 0.00 | 1009.2 | ||
| 20260506213520 | 0 | 0.0 | 0.0 | 0.00 | 0.00 | 0.00 | 1009.2 | ||
| 20260506212520 | 0 | 0.0 | 0.0 | 0.00 | 0.00 | 0.00 | 1009.4 | ||
| 20260506211519 | 0 | 0.0 | 0.0 | 0.00 | 0.00 | 0.00 | 1009.6 | ||
| 20260506210520 | 0 | 0.0 | 0.0 | 0.00 | 0.00 | 0.00 | 1009.6 | ||
| 20260506205519 | 0 | 0.0 | 0.0 | 0.00 | 0.00 | 0.00 | 1009.6 | ||
| 20260506204519 | 0 | 0.0 | 0.0 | 0.00 | 0.00 | 0.00 | 1009.6 | ||
| 20260506203519 | 0 | 0.0 | 0.0 | 0.00 | 0.00 | 0.00 | 1009.7 | ||
| 20260506202518 | 59 | 296 | 3.0 | 7.0 | 0.00 | 0.00 | 0.00 | 99 | 1009.9 |
| 20260506201517 | 59 | 284 | 3.0 | 7.0 | 0.00 | 0.00 | 0.00 | 99 | 1009.9 |
| 20260506200524 | 60 | 338 | 3.0 | 5.0 | 0.00 | 0.00 | 0.00 | 99 | 1009.9 |
| 20260506195518 | 60 | 310 | 3.0 | 8.0 | 0.00 | 0.00 | 0.00 | 99 | 1009.9 |
| 20260506194530 | 61 | 336 | 3.0 | 5.0 | 0.00 | 0.00 | 0.00 | 99 | 1009.9 |
| 20260506193531 | 61 | 309 | 3.0 | 8.0 | 0.00 | 0.00 | 0.00 | 99 | 1010.1 |
| 20260506192525 | 62 | 337 | 2.0 | 3.0 | 0.00 | 0.00 | 0.00 | 97 | 1010.1 |
| 20260506191526 | 63 | 312 | 2.0 | 4.0 | 0.00 | 0.00 | 0.00 | 93 | 1010.1 |
| 20260506190526 | 64 | 23 | 2.0 | 5.0 | 0.00 | 0.00 | 0.00 | 90 | 1010.2 |
| 20260506185525 | 65 | 23 | 3.0 | 6.0 | 0.00 | 0.00 | 0.00 | 84 | 1010.4 |
| 20260506184525 | 65 | 262 | 3.0 | 9.0 | 0.00 | 0.00 | 0.00 | 82 | 1010.6 |
| 20260506183525 | 66 | 339 | 3.0 | 5.0 | 0.00 | 0.00 | 0.00 | 79 | 1010.4 |
| 20260506182525 | 67 | 326 | 3.0 | 5.0 | 0.00 | 0.00 | 0.00 | 78 | 1010.6 |
| 20260506181519 | 68 | 207 | 3.0 | 5.0 | 0.00 | 0.00 | 0.00 | 76 | 1010.6 |
| 20260506180531 | 69 | 324 | 3.0 | 5.0 | 0.00 | 0.00 | 0.00 | 74 | 1010.8 |
| 20260506175531 | 69 | 286 | 3.0 | 5.0 | 0.00 | 0.00 | 0.00 | 73 | 1010.9 |
| 20260506174532 | 71 | 265 | 3.0 | 6.0 | 0.00 | 0.00 | 0.00 | 71 | 1010.9 |
| 20260506173532 | 72 | 252 | 3.0 | 6.0 | 0.00 | 0.00 | 0.00 | 70 | 1010.9 |
| 20260506172532 | 73 | 304 | 3.0 | 5.0 | 0.00 | 0.00 | 0.00 | 69 | 1011.1 |
| 20260506171527 | 74 | 292 | 4.0 | 9.0 | 0.00 | 0.00 | 0.00 | 67 | 1011.1 |
| 20260506170527 | 73 | 285 | 3.0 | 6.0 | 0.00 | 0.00 | 0.00 | 68 | 1010.9 |
| 20260506165525 | 74 | 270 | 4.0 | 7.0 | 0.00 | 0.00 | 0.00 | 66 | 1011.0 |
| 20260506164526 | 76 | 269 | 3.0 | 5.0 | 0.00 | 0.00 | 0.00 | 65 | 1011.1 |
| 20260506163601 | 73 | 339 | 5.0 | 9.0 | 0.00 | 0.00 | 0.00 | 68 | 1011.4 |
| 20260506162521 | 73 | 330 | 4.0 | 7.0 | 0.00 | 0.00 | 0.00 | 68 | 1011.6 |
| 20260506161541 | 74 | 58 | 3.0 | 8.0 | 0.00 | 0.00 | 0.00 | 67 | 1011.6 |
| 20260506160542 | 74 | 277 | 4.0 | 10.0 | 0.00 | 0.00 | 0.00 | 66 | 1011.7 |
| 20260506155522 | 74 | 284 | 3.0 | 7.0 | 0.00 | 0.00 | 0.00 | 66 | 1011.8 |
| 20260506154522 | 75 | 293 | 4.0 | 7.0 | 0.00 | 0.00 | 0.00 | 65 | 1011.8 |
| 20260506153523 | 75 | 307 | 3.0 | 6.0 | 0.00 | 0.00 | 0.00 | 65 | 1012.1 |
| 20260506152523 | 77 | 269 | 3.0 | 6.0 | 0.00 | 0.00 | 0.00 | 63 | 1012.1 |
| 20260506151537 | 77 | 281 | 3.0 | 6.0 | 0.00 | 0.00 | 0.00 | 63 | 1012.1 |
| 20260506150537 | 76 | 25 | 4.0 | 7.0 | 0.00 | 0.00 | 0.00 | 65 | 1012.1 |
| 20260506145523 | 74 | 319 | 4.0 | 8.0 | 0.00 | 0.00 | 0.00 | 69 | 1012.1 |
| 20260506144557 | 73 | 341 | 1.0 | 4.0 | 0.00 | 0.00 | 0.00 | 70 | 1012.1 |
| 20260506143530 | 71 | 262 | 4.0 | 7.0 | 0.00 | 0.00 | 0.00 | 72 | 1012.1 |
| 20260506142525 | 71 | 324 | 3.0 | 6.0 | 0.00 | 0.00 | 0.00 | 71 | 1011.9 |
| 20260506141525 | 72 | 209 | 3.0 | 6.0 | 0.00 | 0.00 | 0.00 | 70 | 1012.3 |
| 20260506140525 | 72 | 3 | 2.0 | 4.0 | 0.00 | 0.00 | 0.00 | 71 | 1012.0 |
| 20260506135545 | 70 | 333 | 3.0 | 4.0 | 0.00 | 0.00 | 0.00 | 73 | 1012.0 |
| 20260506134525 | 70 | 290 | 4.0 | 10.0 | 0.00 | 0.00 | 0.00 | 73 | 1012.1 |
| 20260506133525 | 70 | 256 | 2.0 | 3.0 | 0.00 | 0.00 | 0.00 | 74 | 1012.4 |
| 20260506132524 | 70 | 228 | 3.0 | 5.0 | 0.00 | 0.00 | 0.00 | 74 | 1012.6 |
| 20260506131525 | 68 | 266 | 3.0 | 5.0 | 0.00 | 0.00 | 0.00 | 77 | 1012.6 |
| 20260506130519 | 68 | 355 | 2.0 | 4.0 | 0.00 | 0.00 | 0.00 | 79 | 1012.6 |
| 20260506125531 | 67 | 287 | 3.0 | 6.0 | 0.00 | 0.00 | 0.00 | 80 | 1012.7 |
| 20260506124531 | 66 | 342 | 2.0 | 3.0 | 0.00 | 0.00 | 0.00 | 83 | 1012.8 |
| 20260506123532 | 65 | 267 | 2.0 | 5.0 | 0.00 | 0.00 | 0.00 | 84 | 1012.6 |
| 20260506122532 | 63 | 294 | 3.0 | 6.0 | 0.00 | 0.00 | 0.00 | 87 | 1012.6 |
| 20260506121533 | 63 | 107 | 3.0 | 5.0 | 0.00 | 0.00 | 0.00 | 87 | 1012.6 |
| 20260506120532 | 63 | 241 | 3.0 | 5.0 | 0.00 | 0.00 | 0.00 | 89 | 1012.9 |
| 20260506115527 | 62 | 305 | 2.0 | 6.0 | 0.00 | 0.00 | 0.00 | 91 | 1013.0 |
| 20260506114526 | 61 | 348 | 3.0 | 5.0 | 0.00 | 0.00 | 0.00 | 91 | 1013.1 |
| 20260506113546 | 61 | 287 | 3.0 | 7.0 | 0.00 | 0.00 | 0.00 | 91 | 1013.1 |
| 20260506112521 | 61 | 227 | 2.0 | 6.0 | 0.00 | 0.00 | 0.00 | 92 | 1013.1 |
| 20260506111521 | 60 | 325 | 3.0 | 8.0 | 0.00 | 0.00 | 0.00 | 94 | 1013.1 |
| 20260506110522 | 59 | 291 | 4.0 | 7.0 | 0.00 | 0.00 | 0.00 | 97 | 1013.1 |
| 20260506105522 | 59 | 342 | 2.0 | 5.0 | 0.00 | 0.00 | 0.00 | 98 | 1013.0 |
| 20260506104522 | 59 | 348 | 1.0 | 3.0 | 0.00 | 0.00 | 0.00 | 98 | 1013.0 |
| 20260506103517 | 58 | 8 | 3.0 | 4.0 | 0.00 | 0.00 | 0.00 | 98 | 1013.0 |
| 20260506102517 | 58 | 349 | 2.0 | 4.0 | 0.00 | 0.00 | 0.00 | 98 | 1012.9 |
| 20260506101537 | 58 | 296 | 2.0 | 4.0 | 0.00 | 0.00 | 0.00 | 98 | 1013.0 |
| 20260506100518 | 58 | 313 | 2.0 | 4.0 | 0.00 | 0.00 | 0.00 | 98 | 1012.9 |
| 20260506095516 | 58 | 300 | 1.0 | 3.0 | 0.00 | 0.00 | 0.00 | 98 | 1012.8 |
| 20260506094523 | 58 | 302 | 2.0 | 3.0 | 0.00 | 0.00 | 0.00 | 97 | 1012.6 |
| 20260506093517 | 58 | 316 | 1.0 | 3.0 | 0.00 | 0.00 | 0.00 | 97 | 1012.6 |
| 20260506092530 | 58 | 3 | 2.0 | 6.0 | 0.00 | 0.00 | 0.00 | 96 | 1012.9 |
| 20260506091531 | 58 | 300 | 2.0 | 8.0 | 0.00 | 0.00 | 0.00 | 96 | 1012.8 |
| 20260506090531 | 59 | 283 | 3.0 | 7.0 | 0.00 | 0.00 | 0.00 | 95 | 1012.8 |
| 20260506085530 | 59 | 320 | 2.0 | 4.0 | 0.00 | 0.00 | 0.00 | 95 | 1012.9 |
| 20260506084525 | 59 | 312 | 3.0 | 5.0 | 0.00 | 0.00 | 0.00 | 95 | 1013.0 |
| 20260506083526 | 59 | 298 | 3.0 | 6.0 | 0.00 | 0.00 | 0.00 | 94 | 1013.0 |
| 20260506082527 | 59 | 270 | 2.0 | 5.0 | 0.00 | 0.00 | 0.00 | 94 | 1013.0 |
| 20260506081526 | 59 | 314 | 3.0 | 9.0 | 0.00 | 0.00 | 0.00 | 93 | 1013.0 |
| 20260506080526 | 60 | 314 | 3.0 | 5.0 | 0.00 | 0.00 | 0.00 | 92 | 1013.0 |
| 20260506073519 | 60 | 275 | 3.0 | 5.0 | 0.00 | 0.00 | 0.00 | 91 | 1013.0 |
| 20260506072539 | 60 | 285 | 3.0 | 4.0 | 0.00 | 0.00 | 0.00 | 90 | 1013.0 |
| 20260506071520 | 60 | 296 | 3.0 | 6.0 | 0.00 | 0.00 | 0.00 | 90 | 1012.9 |
| 20260506070600 | 60 | 308 | 3.0 | 6.0 | 0.00 | 0.00 | 0.00 | 89 | 1012.8 |
| 20260506061520 | 60 | 358 | 3.0 | 4.0 | 0.00 | 0.00 | 0.00 | 89 | 1012.8 |
| 20260506060521 | 60 | 292 | 2.0 | 4.0 | 0.00 | 0.00 | 0.00 | 88 | 1012.9 |
| 20260506050538 | 61 | 304 | 4.0 | 7.0 | 0.00 | 0.00 | 0.00 | 83 | 1013.2 |
| 20260506044517 | 62 | 247 | 3.0 | 7.0 | 0.00 | 0.00 | 0.00 | 82 | 1013.3 |
| 20260506043523 | 62 | 285 | 3.0 | 6.0 | 0.00 | 0.00 | 0.00 | 81 | 1013.3 |
| 20260506042517 | 62 | 316 | 3.0 | 7.0 | 0.00 | 0.00 | 0.00 | 81 | 1013.1 |
| 20260506041550 | 62 | 276 | 3.0 | 4.0 | 0.00 | 0.00 | 0.00 | 80 | 1013.1 |
| 20260506040530 | 62 | 268 | 3.0 | 5.0 | 0.00 | 0.00 | 0.00 | 80 | 1013.1 |
| 20260506035610 | 62 | 325 | 3.0 | 5.0 | 0.00 | 0.00 | 0.00 | 79 | 1013.1 |
| 20260506034530 | 62 | 305 | 2.0 | 3.0 | 0.00 | 0.00 | 0.00 | 79 | 1013.1 |
| 20260506033551 | 62 | 313 | 3.0 | 5.0 | 0.00 | 0.00 | 0.00 | 78 | 1013.1 |
| 20260506032531 | 62 | 301 | 2.0 | 7.0 | 0.00 | 0.00 | 0.00 | 77 | 1013.1 |
| 20260506031530 | 62 | 279 | 3.0 | 4.0 | 0.00 | 0.00 | 0.00 | 77 | 1013.0 |
| 20260506030531 | 62 | 280 | 3.0 | 5.0 | 0.00 | 0.00 | 0.00 | 77 | 1013.0 |
| 20260506025525 | 62 | 256 | 3.0 | 6.0 | 0.00 | 0.00 | 0.00 | 77 | 1013.0 |
| 20260506024519 | 62 | 294 | 3.0 | 5.0 | 0.00 | 0.00 | 0.00 | 76 | 1013.1 |
| 20260506023531 | 62 | 308 | 3.0 | 8.0 | 0.00 | 0.00 | 0.00 | 76 | 1013.0 |
| 20260506022532 | 62 | 37 | 3.0 | 6.0 | 0.00 | 0.00 | 0.00 | 76 | 1012.8 |
| 20260506021532 | 62 | 296 | 3.0 | 7.0 | 0.00 | 0.00 | 0.00 | 77 | 1012.9 |
| 20260506020533 | 62 | 286 | 3.0 | 7.0 | 0.00 | 0.00 | 0.00 | 77 | 1012.9 |
| 20260506015533 | 62 | 265 | 3.0 | 5.0 | 0.00 | 0.00 | 0.00 | 77 | 1012.9 |
| 20260506014533 | 62 | 266 | 2.0 | 4.0 | 0.00 | 0.00 | 0.00 | 77 | 1012.9 |
| 20260506013516 | 62 | 323 | 3.0 | 7.0 | 0.00 | 0.00 | 0.00 | 77 | 1012.8 |
| 20260506012516 | 62 | 253 | 3.0 | 12.0 | 0.00 | 0.00 | 0.00 | 76 | 1012.8 |
| 20260506011535 | 62 | 279 | 3.0 | 6.0 | 0.00 | 0.00 | 0.00 | 76 | 1012.6 |
| 20260506010543 | 62 | 259 | 3.0 | 6.0 | 0.00 | 0.00 | 0.00 | 76 | 1012.6 |
| 20260506005517 | 62 | 302 | 2.0 | 4.0 | 0.00 | 0.00 | 0.00 | 76 | 1012.5 |
| 20260506004529 | 62 | 316 | 2.0 | 4.0 | 0.00 | 0.00 | 0.00 | 76 | 1012.4 |
| 20260506003530 | 62 | 255 | 3.0 | 5.0 | 0.00 | 0.00 | 0.00 | 75 | 1012.3 |
| 20260506002530 | 62 | 288 | 3.0 | 5.0 | 0.00 | 0.00 | 0.00 | 75 | 1012.1 |
| 20260506001530 | 62 | 317 | 2.0 | 4.0 | 0.00 | 0.00 | 0.00 | 75 | 1011.9 |
| 20260506000531 | 62 | 21 | 3.0 | 6.0 | 0.00 | 0.00 | 0.00 | 75 | 1011.7 |
| 20260505235531 | 63 | 330 | 2.0 | 4.0 | 0.00 | 0.00 | 0.00 | 74 | 1011.6 |
| 20260505234530 | 63 | 263 | 2.0 | 6.0 | 0.00 | 0.00 | 0.00 | 73 | 1011.6 |
| 20260505233531 | 64 | 244 | 3.0 | 7.0 | 0.00 | 0.00 | 0.00 | 72 | 1011.4 |
| 20260505232524 | 65 | 300 | 2.0 | 5.0 | 0.00 | 0.00 | 0.00 | 71 | 1011.1 |
| 20260505231519 | 65 | 310 | 3.0 | 5.0 | 0.00 | 0.00 | 0.00 | 70 | 1010.9 |